Погода в Цуге

Швейцария     47°09′58″N   8°30′55″E
темп.,
°C
ветер,
м/с
пор.,
м/с
влажн.,
%
обл.,
%
осадки,
мм/ч
давл.,
гПа
погр.,
м
22 января, сб
сб2201:00−6ююв11915 0.0 103716
04:00−7ю11875 0.0 103615
07:00−7ююв11875 0.0 103714
10:00−3в016710 0.0 1037123
13:00+1ссв11605 0.0 1035376
16:00+1ссв11775 0.0 103420
19:00−4юв11955 0.0 103713
22:00−4юв119510 0.0 103713
23 января, вс
вс2301:00−5вюв119613 0.0 103612
04:00−5вюв119713 0.0 103512
07:00−6вюв119618 0.0 103513
10:00−2св11807 0.0 1035125
13:00+3св247531 0.0 1033590
16:00+2св258725 0.0 1032306
19:00−3вюв119864 0.0 103312
22:00−1св119597 0.0 103339
24 января, пн
пн2401:00−2св119879 0.0 103329
04:00−3вюв119766 0.0 103319
07:00−3в019583 0.0 103349
10:00−1св118587 0.0 1033385
13:00+1ссв127738 0.0 1033516
16:00+1ссв00835 0.0 103323
19:00−3юв119615 0.0 103510
22:00−4юв119716 0.0 103611
25 января, вт
вт2501:00−4вюв119832 0.0 103712
04:00−3ююв119659 0.0 103723
07:00−2в119475 0.0 103728
10:00−1всв118876 0.0 1038274
13:00+2ссв117922 0.0 1037402
16:00+2ссв11865 0.0 103626
19:00−3вюв119715 0.0 103810
22:00−4вюв119824 0.0 103811
26 января, ср
ср2601:00−4вюв119826 0.0 103811
04:00−4вюв119831 0.0 103813
07:00−4вюв119752 0.0 103716
10:00−2всв018958 0.0 1036157
13:00+2ссв117943 0.0 1034430
16:00+1с1186100 0.0 103318
19:00−2ююв1195100 0.0 103410
22:00−3ююв119649 0.0 103411